Regional Weather Roundup
Issued by NWS

Home | Current Version | Previous Version | Text Only | Print | Product List | Glossary On
Versions: 1 2 3 4 5 6 7 8 9 10 11 12 13 14 15 16 17 18 19 20 21 22 23 24 25 26 27
000
ASCA42 TJSJ 101110
RWRPR
PUERTO RICO/U.S. VIRGIN ISLANDS HOURLY WEATHER ROUNDUP
NATIONAL WEATHER SERVICE SAN JUAN PR
700 AM AST SAT DEC 10 2016

PRZ001>002-007>008-010-101200-
PUERTO RICO

CITY           SKY/WX    TMP DP  RH WIND       PRES   REMARKS
SAN JUAN LMM   MOCLDY    79  73  83 SE3       30.06R
AGUADILLA      MOCLDY    73  72  94 SE3       30.06
CEIBA          CLEAR     79  75  89 NE5       30.07R
$$

VIZ001>002-101200-
U.S. VIRGIN ISLANDS

CITY           SKY/WX    TMP DP  RH WIND       PRES   REMARKS
CHARLOTTE AMA  PTCLDY    79  75  89 E8        30.05R
CHRISTIANSTED  PTCLDY    73  72  94 N6        30.05R
$$

HOURLY WEATHER ROUNDUP FOR THE NEWS MEDIA

CITY           SKY/WX    TMP DP  RH WIND       PRES   REMARKS
ORLANDO        CLEAR     51  44  77 N8        30.34R
NEW YORK       PTCLDY    30  14  51 W14       30.37R WCI  19
NEWARK         PTCLDY    25  17  72 SW5       30.36S WCI  19
CHICAGO        CLOUDY    19  12  74 W9        30.50R WCI   8
HARTFORD       CLEAR     21   7  54 NW5       30.26R WCI  15
BOSTON         PTCLDY    22   8  55 W14       30.27R WCI   9
DALLAS         CLOUDY    39  24  55 SE12      30.47S WCI  32
PHILADELPHIA   PTCLDY    27  17  66 W7        30.43R WCI  19
LOS ANGELES    CLOUDY    59  55  87 CALM      30.17R FOG
WASHINGTON DC  PTCLDY    25  13  60 NW5       30.48R WCI  19



USA.gov is the U.S. government's official web portal to all federal, state and local government web resources and services.